Raymond Le Roux

Chefscout - Valenciennes
3 Apr 2027
Samstag
Verarbeitung

Persönlichkeit

Anpassungsfähigkeit (3) Ehrgeiz (13) Kontroverse (10) Loyalität (3) Druck (4) Professionalität (11) Fairness (13) Temperament (7)

Profil

Trainerstil Demokratisch
Lizenz Kontinentale B
Entschlossenheit 5
Menschenführung 7
Motivation 11
Disziplin 5
Arbeitszufriedenheit
88%
Ermüdung
0%
Rolle Chefscout
Gehalt 68.8K p/W
Vertrag 14.03.2030

Leistung

Verhalten Gut
Trainingseffektivität
35%
Spielerentwicklung
25%
Verletzungsprävention
30%
Taktische Umsetzung
40%

Letzte Ereignisse

Spieler begutachtet jetzt
Nahm an einer Scouting-Besprechung teil jetzt
Empfahl ein Transferziel jetzt
Empfahl ein Transferziel jetzt
Spieler begutachtet jetzt
Spieler begutachtet jetzt
Spieler begutachtet 7T her
Spieler begutachtet 7T her

Aktuell beobachtet

112
Spieler Verein Status Fähigkeit Vertrauen Beobachtet Zuletzt beobachtet Letzte Stimme
Lazar Tufegdžić Cukaricki Aktiv 114 / 113 40% 2 02.04.2027 -
Diego Valencia Gornik Leczna Aktiv 119 / 117 40% 2 02.04.2027 -
John Okoye Ebuka Ittihad Aktiv 127 / 112 40% 1 02.04.2027 -
Mika Lusitânia Lourosa Aktiv 111 / 114 40% 3 01.04.2027 -
Camillo Tavernelli Arezzo Aktiv 117 / 116 40% 2 01.04.2027 -
Kévin Zohi Torreense Aktiv 113 / 115 40% 3 01.04.2027 -
Ismail Azzaoui Lokeren Aktiv 112 / 105 40% 3 31.03.2027 -
Danyil Alefirenko Chornomorets Aktiv 114 / 105 40% 3 31.03.2027 -
Lucas Duarte Felgueiras Aktiv 109 / 108 40% 2 30.03.2027 -
Anatole Abang USM Alger Aktiv 103 / 108 40% 5 30.03.2027 -
Gaël Nsombi US Creteil Aktiv 103 / 103 40% 1 30.03.2027 -
Daniel Vašulín Zbrojovka Brno Aktiv 120 / 102 40% 1 29.03.2027 -
Ramadan Mohsen Zamalek Aktiv 122 / 137 40% 2 28.03.2027 -
Marcus Browne AFC Wimbledon Aktiv 114 / 97 40% 2 28.03.2027 -
Fernand Gouré Westerlo Aktiv 112 / 108 40% 2 28.03.2027 -
Isa Sakamoto Westerlo Aktiv 107 / 124 40% 2 27.03.2027 -
Sam Nombe Milton Keynes Dons Aktiv 115 / 111 40% 2 27.03.2027 -
Chris Ramos Botafogo Aktiv 124 / 124 40% 2 26.03.2027 -
Thomas Amang Omonoia Aktiv 113 / 116 40% 2 26.03.2027 -
Rui Costa Port Vale Aktiv 114 / 104 40% 2 26.03.2027 -
Carlos Paraco Metalist Aktiv 119 / 119 40% 3 25.03.2027 -
Mohammed Bouldini Académico de Viseu Aktiv 116 / 122 40% 1 25.03.2027 -
Giuseppe Panico Foggia Aktiv 110 / 123 40% 1 25.03.2027 -
Marco Tumminello Benevento Aktiv 120 / 118 40% 1 24.03.2027 -
Shayne Lavery Cambridge United Aktiv 103 / 109 40% 1 24.03.2027 -
Rivaldo Ngcobo Free State Stars Aktiv 101 / 101 40% 1 19.03.2027 -
Alimi Sikiru JS Saoura Aktiv 108 / 118 40% 1 17.03.2027 -
Alexandr Yushin Torpedo Moscow Aktiv 109 / 103 40% 2 16.03.2027 -
Rui Pedro Chaves Aktiv 113 / 101 40% 1 16.03.2027 -
Dani Gómez Zaragoza Aktiv 112 / 124 40% 1 15.03.2027 -
Mohamed Sherif Al Ahly Aktiv 113 / 114 40% 2 14.03.2027 -
Nardin Mulahusejnović Vojvodina Aktiv 118 / 115 40% 2 14.03.2027 -
Tomáš Zlatohlávek Teplice Aktiv 115 / 111 40% 1 14.03.2027 -
Alberto Cerri Cesena Aktiv 116 / 112 40% 2 13.03.2027 -
Thierry Ambrose KV Kortrijk Aktiv 124 / 122 40% 1 12.03.2027 -
Edarlyn Reyes Arsenal Tula Aktiv 106 / 99 40% 1 11.03.2027 -
Damien Durand Red Star Aktiv 117 / 112 40% 1 06.03.2027 -
Lazar Mijović Cukaricki Aktiv 113 / 109 40% 1 05.03.2027 -
Dylan Nandín Arouca Aktiv 119 / 111 40% 1 03.03.2027 -
Harry Cornick AFC Wimbledon Aktiv 112 / 102 40% 1 03.03.2027 -
Peter Itodo Metalist Aktiv 107 / 124 40% 1 03.03.2027 -
Zayd El Kandoussi Lokeren Aktiv 115 / 107 40% 1 01.03.2027 -
Pladi Nzinga-Pambani Olympique de Marseille Aktiv 89 / 90 72% 1 25.01.2027 Befürworten
Lewis Freestone Stevenage Aktiv 108 / 96 40% 1 17.01.2027 -
Dylan Ourega Westerlo Aktiv 106 / 121 40% 1 17.01.2027 -
Lebogang Erasmus Platinum Stars Aktiv 108 / 100 40% 1 16.01.2027 -
Gift Zwane Platinum Stars Aktiv 113 / 107 40% 1 16.01.2027 -
Alejandro Gómez Tijuana Aktiv 123 / 108 40% 2 15.01.2027 -
Leo Fuhr Hjelde KV Mechelen Aktiv 111 / 128 40% 1 15.01.2027 -
Aarón Mejía Tijuana Aktiv 122 / 129 40% 1 15.01.2027 -
Doğucan Haspolat Westerlo Aktiv 117 / 114 40% 2 14.01.2027 -
Gora Diouf KV Mechelen Aktiv 112 / 115 40% 1 14.01.2027 -
Thalente Mbatha Orlando Pirates Aktiv 122 / 107 40% 1 14.01.2027 -
Goodman Mosele Chippa United Aktiv 112 / 99 40% 1 13.01.2027 -
Ivan Edson Veracruz Aktiv 134 / 116 40% 1 13.01.2027 -
Yassine Khalifi Charleroi Aktiv 105 / 114 40% 2 12.01.2027 -
Paulo Victor Queretaro Aktiv 124 / 126 40% 1 12.01.2027 -
Denis Renault Chamois Niortais Aktiv 108 / 107 72% 1 11.01.2027 Befürworten
Jakob Kiilerich Zulte Waregem Aktiv 115 / 124 40% 1 11.01.2027 -
Siyanda Msani University of Pretoria Aktiv 100 / 112 40% 1 11.01.2027 -
Anton Tanghe Zulte Waregem Aktiv 112 / 117 40% 1 11.01.2027 -
Enzo Koffi Le Havre AC Abgelehnt 108 / 104 72% 1 06.01.2027 Ablehnen
Seny Koumbassa Toulouse FC Abgelehnt 91 / 113 72% 1 31.08.2026 Ablehnen
Maksim Kireev KV Mechelen Aktiv 118 / 131 40% 3 29.08.2026 -
Keano Vanrafelghem KV Mechelen Aktiv 109 / 104 40% 2 29.08.2026 -
Robert-Jan Vanwesemael Sint-Truiden Aktiv 115 / 110 40% 1 29.08.2026 -
Ramiro Carrera Lanús Aktiv 120 / 115 40% 1 26.08.2026 -
Miguel Almirón Atlanta United FC Aktiv 134 / 139 40% 1 26.08.2026 -
Léandre Kuavita Waasland-Beveren Aktiv 117 / 113 40% 3 24.08.2026 -
Juan Giménez Rosario Central Aktiv 119 / 125 40% 1 24.08.2026 -
Cemran Dansin Orlando Pirates Aktiv 110 / 119 40% 1 24.08.2026 -
Santiago Fernández Talleres Aktiv 127 / 131 40% 1 24.08.2026 -
Thibault Vlietinck OH Leuven Aktiv 117 / 120 40% 3 23.08.2026 -
Youssef Challouk KAA Gent Aktiv 107 / 117 40% 1 23.08.2026 -
Kaito Matsuzawa Sint-Truiden Aktiv 107 / 116 40% 2 21.08.2026 -
William Balikwisha OH Leuven Aktiv 115 / 114 40% 1 20.08.2026 -
Nikola Mituljikić Zulte Waregem Aktiv 96 / 103 40% 2 19.08.2026 -
Bradel Kiwa Monaco Aktiv 106 / 111 40% 1 19.08.2026 -
Lucas Agazzi Defensor Sporting Aktiv 126 / 123 40% 1 19.08.2026 -
Bill Antonio KV Mechelen Aktiv 121 / 117 40% 1 19.08.2026 -
Tommy St. Jago KV Mechelen Aktiv 116 / 129 40% 1 18.08.2026 -
Thorgan Nainggolan Mouscron Aktiv 109 / 110 40% 1 17.08.2026 -
Ali Maamar Anderlecht Aktiv 105 / 102 40% 1 17.08.2026 -
Daniel Falcao La Equidad Aktiv 109 / 112 40% 1 17.08.2026 -
Noah Rwabuzisoni Club Brugge Aktiv 78 / 85 40% 1 16.08.2026 -
Teo Rodríguez Pagano San Lorenzo Aktiv 107 / 122 40% 1 16.08.2026 -
Thérence Koudou KV Mechelen Aktiv 102 / 101 40% 1 16.08.2026 -
Daniel Herrera Cortulua Aktiv 102 / 109 40% 1 14.08.2026 -
Matisse Samoise KAA Gent Aktiv 119 / 122 40% 1 14.08.2026 -
Dedryck Chadli Mouscron Aktiv 118 / 128 40% 1 14.08.2026 -
Sergio Oregel Chicago Fire Aktiv 108 / 119 40% 1 11.08.2026 -
Steeven Assengue Standard Liege Aktiv 89 / 106 40% 1 11.08.2026 -
Juan Pablo De la Reta Maipú Aktiv 117 / 117 40% 1 11.08.2026 -
Fredrik Hammar KV Mechelen Aktiv 109 / 115 40% 1 09.08.2026 -
Jakob Glesnes LA Galaxy Aktiv 130 / 130 40% 1 09.08.2026 -
Benoît Nyssen Zulte Waregem Aktiv 111 / 110 40% 1 09.08.2026 -
Laurent Lemoine Zulte Waregem Aktiv 112 / 104 40% 1 09.08.2026 -
Matties Volckaert KAA Gent Aktiv 109 / 102 40% 1 07.08.2026 -
Matte Smets Racing Genk Aktiv 122 / 129 40% 1 07.08.2026 -
Łukasz Łakomy OH Leuven Aktiv 112 / 118 40% 1 06.08.2026 -
Eliás Montiel Pachuca Aktiv 138 / 136 40% 1 06.08.2026 -
Abdoulaye Sissako Sint-Truiden Aktiv 114 / 105 40% 1 06.08.2026 -
Joris Kayembe Racing Genk Aktiv 124 / 111 40% 1 05.08.2026 -
Noah Adedeji-Sternberg Racing Genk Aktiv 116 / 124 40% 1 05.08.2026 -
Bryang Kayo OH Leuven Aktiv 118 / 123 40% 1 05.08.2026 -
Gilles Dewaele KV Kortrijk Aktiv 121 / 111 40% 1 05.08.2026 -
Ryan Merlen Sint-Truiden Aktiv 104 / 116 40% 1 05.08.2026 -
Takuya Ogiwara Urawa Reds Aktiv 125 / 130 40% 1 05.08.2026 -
Thomas Claes Zulte Waregem Aktiv 114 / 115 40% 1 03.08.2026 -
Tobias Mohr Standard Liege Aktiv 121 / 111 40% 1 03.08.2026 -
Farès Bahlouli Petrolul Aktiv 105 / 92 40% 1 03.08.2026 -
Chris Lokesa Waasland-Beveren Aktiv 112 / 125 40% 1 02.08.2026 -